Location: Ipswich
(52.0579°N, 1.1528°E)
Time: 21:31:30
(UTC+01:00)

ISS - Pass Details

Date: 14 May 2026
Orbit: 414 x 424 km, 51.6° (Epoch: 15 May)

Event Time Altitude Azimuth Distance (km) Brightness Sun altitude
Rises 23:07:25 0° 276° (W) 2,354 0.5 -15.6°
Reaches altitude 10° 23:09:30 10° 275° (W) 1,491 -0.6 -15.7°
Maximum altitude 23:12:50 76° 190° (S) 434 -3.9 -15.9°
Enters shadow 23:14:19 31° 110° (ESE) 765 -2.8 -16.0°
